Savannah, GA

3:26 AM EDT on July 22, 2017 (GMT -0400)
Savannah International

Weather History for KSAV - March, 2013

Change the Weather History Date:

Wednesday, March 13, 2013

  Actual Average Record
Temperature  
Mean Temperature 55 °F 59 °F  
Max Temperature 67 °F 70 °F 89 °F (1955)
Min Temperature 43 °F 47 °F 24 °F (1998)
Degree Days  
Heating Degree Days 10 7  
Month to date heating degree days 185 109  
Since 1 July heating degree days 1407 1626  
Cooling Degree Days 0 1  
Month to date cooling degree days 0 13  
Year to date cooling degree days 28 23  
Growing Degree Days 4 (Base 50)    
Moisture  
Dew Point 28 °F    
Average Humidity 43    
Maximum Humidity 65    
Minimum Humidity 20    
Precipitation  
Precipitation 0.00 in 0.13 in 2.38 in (1895)
Month to date precipitation 0.14 1.56  
Year to date precipitation 10.44 8.04  
Snow  
Snow 0.00 in 0.00 in - ()
Month to date snowfall 0.0  
Since 1 July snowfall 0.0 0.3  
Snow Depth 0.00 in    
Sea Level Pressure  
Sea Level Pressure 30.09 in    
Wind  
Wind Speed 11 mph (WNW)    
Max Wind Speed 25 mph    
Max Gust Speed 36 mph    
Visibility 10 miles    
Events      
T = Trace of Precipitation, MM = Missing Value Source: NWS Daily Summary

Daily Weather History Graph

Daily Weather History Graph

Search for Another Location

Airport or City:

Trip Planner

Search our weather history database for the weather conditions in past years. The results will help you decide how hot, cold, wet, or windy it might be!

Date:

Astronomy

Mar. 13, 2013 Rise Set
Actual Time 7:37 AM EDT 7:31 PM EDT
Civil Twilight 7:12 AM EDT 7:56 PM EDT
Nautical Twilight 6:44 AM EDT 8:24 PM EDT
Astronomical Twilight 6:15 AM EDT 8:52 PM EDT
Moon 8:24 AM EDT (3/13) 9:35 PM EDT (3/13)
Length of Visible Light 12h 43m
Length of Day
11h 54m
Waxing Crescent, 4% of the Moon is Illuminated
Mar 13
Waxing Crescent
Mar 19
First Quarter
Mar 27
Full
Apr 3
Last Quarter
Apr 10
New

Hourly Weather History & Observations

Time (EDT) Temp. Windchill Dew Point Humidity Pressure Visibility Wind Dir Wind Speed Gust Speed Precip Events Conditions
12:53 AM 54.0 °F - 35.1 °F 49% 30.01 in 10.0 mi WNW 11.5 mph - N/A   Clear
1:53 AM 53.1 °F - 33.1 °F 47% 30.03 in 10.0 mi WNW 11.5 mph - N/A   Clear
2:53 AM 51.1 °F - 33.1 °F 50% 30.03 in 10.0 mi WNW 9.2 mph - N/A   Clear
3:53 AM 50.0 °F - 33.1 °F 52% 30.04 in 10.0 mi NW 9.2 mph - N/A   Clear
4:53 AM 50.0 °F - 32.0 °F 50% 30.06 in 10.0 mi NW 8.1 mph 24.2 mph N/A   Clear
5:53 AM 48.0 °F - 32.0 °F 54% 30.08 in 10.0 mi NNW 6.9 mph - N/A   Partly Cloudy
6:53 AM 45.0 °F 41.2 °F 32.0 °F 60% 30.12 in 10.0 mi NW 6.9 mph - N/A   Partly Cloudy
7:53 AM 45.0 °F 41.8 °F 33.1 °F 63% 30.14 in 10.0 mi NW 5.8 mph - N/A   Partly Cloudy
8:53 AM 48.9 °F - 34.0 °F 56% 30.16 in 10.0 mi NW 5.8 mph - N/A   Clear
9:53 AM 54.0 °F - 30.9 °F 41% 30.17 in 10.0 mi North 9.2 mph - N/A   Clear
10:53 AM 57.9 °F - 28.9 °F 33% 30.17 in 10.0 mi NW 5.8 mph - N/A   Clear
11:53 AM 62.1 °F - 28.0 °F 28% 30.16 in 10.0 mi NNW 8.1 mph - N/A   Clear
12:53 PM 64.4 °F - 24.8 °F 22% 30.14 in 10.0 mi WNW 16.1 mph 24.2 mph N/A   Partly Cloudy
1:53 PM 64.4 °F - 23.0 °F 21% 30.10 in 10.0 mi West 25.3 mph 29.9 mph N/A   Scattered Clouds
2:53 PM 66.0 °F - 25.0 °F 21% 30.08 in 10.0 mi WNW 15.0 mph 28.8 mph N/A   Scattered Clouds
3:53 PM 66.9 °F - 24.1 °F 20% 30.06 in 10.0 mi WNW 15.0 mph 26.5 mph N/A   Clear
4:53 PM 66.9 °F - 24.1 °F 20% 30.04 in 10.0 mi West 16.1 mph 28.8 mph N/A   Clear
5:53 PM 64.9 °F - 25.0 °F 22% 30.04 in 10.0 mi West 19.6 mph 31.1 mph N/A   Clear
6:53 PM 63.0 °F - 25.0 °F 24% 30.05 in 10.0 mi West 13.8 mph 23.0 mph N/A   Clear
7:53 PM 60.1 °F - 26.1 °F 27% 30.07 in 10.0 mi West 12.7 mph - N/A   Clear
8:53 PM 55.9 °F - 26.1 °F 32% 30.09 in 10.0 mi WNW 9.2 mph - N/A   Clear
9:53 PM 54.0 °F - 25.0 °F 33% 30.12 in 10.0 mi NW 6.9 mph - N/A   Clear
10:53 PM 53.1 °F - 21.9 °F 30% 30.14 in 10.0 mi WNW 11.5 mph - N/A   Clear
11:53 PM 53.1 °F - 21.9 °F 30% 30.16 in 10.0 mi NW 9.2 mph - N/A   Clear